Cherry Point, NC

3:19 AM EST on February 08, 2016 (GMT -0500)
Cherry Point Marine Corps Air Station

Weather History for KNKT - March, 2013

Change the Weather History Date:

Thursday, March 28, 2013

  Actual Average Record
Temperature  
Mean Temperature 45 °F -  
Max Temperature 57 °F 65 °F 84 °F (2007)
Min Temperature 35 °F 45 °F 28 °F (2001)
Degree Days  
Heating Degree Days 20    
Moisture  
Dew Point 24 °F    
Average Humidity 46    
Maximum Humidity 70    
Minimum Humidity 28    
Precipitation  
Precipitation 0.00 in - - ()
Sea Level Pressure  
Sea Level Pressure 30.19 in    
Wind  
Wind Speed 7 mph ()    
Max Wind Speed 17 mph    
Max Gust Speed 23 mph    
Visibility 10.0 miles    
Events      
Averages and records for this station are not official NWS values.
T = Trace of Precipitation, MM = Missing Value Source: Averaged Metar Reports

Daily Weather History Graph

Daily Weather History Graph

Search for Another Location

Airport or City:

Trip Planner

Search our weather history database for the weather conditions in past years. The results will help you decide how hot, cold, wet, or windy it might be!

Date:

Astronomy

Mar. 28, 2013 Rise Set
Actual Time 6:59 AM EDT 7:25 PM EDT
Civil Twilight 6:34 AM EDT 7:51 PM EDT
Nautical Twilight 6:04 AM EDT 8:20 PM EDT
Astronomical Twilight 5:34 AM EDT 8:51 PM EDT
Moon 9:09 PM EDT (3/28) 7:30 AM EDT (3/28)
Length of Visible Light 13h 16m
Length of Day
12h 26m
Full, 98% of the Moon is Illuminated
Mar 28
Full
Apr 3
Last Quarter
Apr 10
New
Apr 18
First Quarter
Apr 25
Full

Hourly Weather History & Observations

Time (EDT) Temp. Windchill Dew Point Humidity Pressure Visibility Wind Dir Wind Speed Gust Speed Precip Events Conditions
12:54 AM 41.0 °F 35.8 °F 23.0 °F 49% 30.19 in 10.0 mi NW 8.1 mph - N/A   Clear
1:54 AM 39.9 °F 34.5 °F 21.9 °F 49% 30.19 in 10.0 mi NW 8.1 mph - N/A   Clear
2:54 AM 39.0 °F 34.0 °F 21.9 °F 50% 30.19 in 10.0 mi NW 6.9 mph - N/A   Clear
3:54 AM 37.0 °F 32.4 °F 23.0 °F 57% 30.18 in 10.0 mi WNW 5.8 mph - N/A   Clear
4:54 AM 36.0 °F 30.3 °F 23.0 °F 59% 30.18 in 10.0 mi WNW 6.9 mph - N/A   Clear
5:54 AM 36.0 °F 30.3 °F 23.0 °F 59% 30.18 in 10.0 mi NW 6.9 mph - N/A   Clear
6:54 AM 35.1 °F 29.3 °F 24.1 °F 64% 30.19 in 10.0 mi NW 6.9 mph - N/A   Clear
7:54 AM 36.0 °F 30.3 °F 25.0 °F 64% 30.21 in 10.0 mi WNW 6.9 mph - N/A   Clear
8:54 AM 42.1 °F 36.1 °F 26.1 °F 53% 30.21 in 10.0 mi NNW 10.4 mph - N/A   Clear
9:54 AM 46.0 °F 39.0 °F 26.1 °F 46% 30.21 in 10.0 mi NNW 17.3 mph 23.0 mph N/A   Clear
10:54 AM 48.9 °F - 25.0 °F 39% 30.21 in 10.0 mi NNW 12.7 mph - N/A   Clear
11:54 AM 52.0 °F - 25.0 °F 35% 30.20 in 10.0 mi North 13.8 mph - N/A   Clear
12:54 PM 52.0 °F - 23.0 °F 32% 30.19 in 10.0 mi NNW 10.4 mph 18.4 mph N/A   Scattered Clouds
1:54 PM 53.1 °F - 23.0 °F 31% 30.17 in 10.0 mi North 12.7 mph 18.4 mph N/A   Scattered Clouds
2:54 PM 55.0 °F - 23.0 °F 29% 30.15 in 10.0 mi NW 6.9 mph 17.3 mph N/A   Partly Cloudy
3:54 PM 55.0 °F - 23.0 °F 29% 30.14 in 10.0 mi NNW 15.0 mph 21.9 mph N/A   Mostly Cloudy
4:54 PM 55.9 °F - 23.0 °F 28% 30.14 in 10.0 mi NW 13.8 mph 20.7 mph N/A   Mostly Cloudy
5:54 PM 55.0 °F - 23.0 °F 29% 30.15 in 10.0 mi NW 11.5 mph - N/A   Mostly Cloudy
6:54 PM 54.0 °F - 21.9 °F 29% 30.16 in 10.0 mi NNW 9.2 mph - N/A   Scattered Clouds
7:54 PM 50.0 °F - 24.1 °F 36% 30.18 in 10.0 mi WNW 4.6 mph - N/A   Scattered Clouds
8:54 PM 45.0 °F - 27.0 °F 49% 30.20 in 10.0 mi Calm Calm - N/A   Mostly Cloudy
9:54 PM 43.0 °F 41.3 °F 28.9 °F 58% 30.22 in 10.0 mi WSW 3.5 mph - N/A   Mostly Cloudy
10:54 PM 44.1 °F - 26.1 °F 49% 30.24 in 10.0 mi Calm Calm - N/A   Partly Cloudy
11:54 PM 39.0 °F - 30.0 °F 70% 30.25 in 10.0 mi Calm Calm - N/A   Clear